Location: Academy at Carrie F Thomas
(32.8490°N, 97.2053°W)
Time: 03:02:26
(UTC+00:00)

Meteor 1-25 Rocket - Pass Details

Date: 05 July 2022
Orbit: 835 x 892 km, 81.2° (Epoch: 13 August)

Event Time Altitude Azimuth Distance (km) Brightness Sun altitude
Exits shadow 10:13:55 16° 255° (WSW) 2,160 5.8 -13.5°
Maximum altitude 10:16:29 21° 287° (WNW) 1,905 5.7 -13.1°
Drops below altitude 10° 10:20:46 10° 335° (NNW) 2,561 6.9 -12.4°
Sets 10:23:53 0° 351° (N) 3,499 7.8 -11.8°
